Wind_Speed
38 35 32 31 32 30 29 29 29 30 32 33 32 32 33 32 31 29 28 28 30 31 30 30 32 32 31 30 30 31 30 31 31 28 31 32 32 32 27 25 19 15 14
37 36 34 34 36 34 32 33 32 31 32 32 32 33 33 32 32 31 32 32 32 32 32 32 34 34 33 33 33 33 33 33 33 32 33 35 35 36 33 29 24 22 21
37 37 37 37 37 36 34 34 33 31 31 30 31 31 31 32 32 33 34 35 35 35 37 36 35 34 35 35 36 35 36 36 35 35 37 38 38 38 36 35 28 24 25
33 33 36 38 38 36 34 33 32 31 30 31 31 31 32 33 34 37 38 38 37 37 37 37 36 36 36 36 37 38 38 38 38 37 39 39 41 41 34 32 28 31 30
35 37 37 37 39 38 36 35 34 32 31 32 32 34 34 35 36 38 40 42 41 38 37 34 33 35 36 37 37 40 41 41 40 39 40 41 41 45 46 43 33 35 34
35 36 36 38 39 40 36 33 33 32 32 34 34 35 34 36 38 40 40 40 42 40 36 33 34 35 36 36 38 39 42 44 41 41 42 44 42 46 47 44 43 34 31
34 36 40 35 32 31 28 29 30 30 35 37 35 35 35 38 40 43 43 39 38 38 38 40 40 39 38 37 39 41 40 44 45 43 43 43 43 44 47 47 42 39 34
31 30 29 31 30 29 28 27 30 33 36 34 34 34 38 39 41 41 38 39 42 43 43 44 44 43 41 41 40 41 42 43 46 45 44 42 43 44 48 44 43 38 34
23 24 26 28 30 30 28 28 31 36 38 39 35 36 38 37 37 37 38 40 44 45 45 43 43 43 43 43 41 42 44 43 46 47 43 41 41 42 47 46 43 38 33
21 27 30 37 36 35 31 32 32 34 37 38 35 35 35 35 35 36 40 40 40 40 40 42 42 42 43 42 42 42 45 44 46 49 44 41 40 43 45 46 43 39 33
20 25 29 35 35 34 35 34 33 32 33 33 34 32 33 33 36 40 40 41 44 40 40 41 42 41 42 43 42 42 44 46 46 49 46 43 42 42 45 46 44 40 34
23 26 28 32 32 33 34 35 33 32 32 33 30 30 28 32 34 37 37 36 38 39 36 37 38 39 40 42 40 40 41 44 46 49 46 44 42 44 43 44 46 43 31
26 27 30 31 32 35 34 32 32 30 32 31 29 28 28 27 31 34 36 38 38 33 35 33 32 33 35 39 38 36 39 41 44 47 46 45 43 43 42 43 48 47 45
29 32 33 33 37 37 33 32 30 32 31 30 31 27 26 31 36 32 35 32 29 30 28 27 26 25 29 35 35 33 39 39 40 43 44 44 44 43 41 44 46 44 46
34 32 33 35 36 35 31 28 30 30 30 30 25 25 30 32 34 31 33 27 23 22 23 26 27 28 29 31 33 31 38 36 37 40 41 43 45 42 39 43 44 46 43
31 32 32 33 35 32 28 28 31 29 31 28 28 28 29 30 29 31 30 20 18 23 24 25 29 30 30 31 32 31 35 37 35 38 37 40 43 38 36 40 42 41 46
30 31 29 32 32 30 27 29 30 30 29 31 29 28 25 27 28 32 24 18 20 23 25 25 28 29 28 31 33 31 33 36 34 36 35 40 38 34 32 37 39 43 41
31 29 27 31 29 26 26 28 29 28 29 28 23 22 23 27 28 26 19 17 21 21 20 20 23 26 26 30 34 31 31 33 33 36 37 36 34 30 29 33 36 32 25
35 27 27 30 27 24 26 27 28 27 27 25 23 21 22 26 24 23 18 18 18 15 12 14 20 24 24 30 32 28 32 32 32 34 35 34 31 28 28 33 34 35 29
31 25 26 27 23 24 27 25 27 27 28 26 23 22 22 24 24 21 16 16 15 10 9 15 17 21 26 28 26 28 32 29 27 31 32 32 31 29 29 32 36 35 21
26 23 25 25 24 25 26 25 26 24 26 21 23 21 19 22 21 20 14 15 12 8 9 15 16 25 28 28 28 31 28 30 32 29 31 33 29 28 23 29 43 25 29
23 22 25 25 24 26 24 25 25 24 24 26 25 18 16 19 20 18 10 11 8 5 4 18 22 27 26 28 29 30 32 30 29 31 32 30 28 29 23 28 31 30 32
20 24 25 23 23 24 22 24 22 23 24 22 20 14 16 19 20 13 6 6 4 4 13 19 24 25 27 30 28 29 21 28 27 27 30 34 29 27 29 36 40 29 23
20 23 21 21 21 20 20 21 20 23 25 19 17 18 19 20 15 7 3 2 5 10 17 20 21 24 27 30 32 27 25 26 24 26 29 31 28 25 24 23 24 27 27
20 18 20 19 18 17 20 17 18 21 20 19 19 23 23 13 10 4 1 4 9 14 19 17 21 24 29 27 30 27 24 24 25 23 25 26 26 24 24 17 17 25 27
18 17 19 17 14 16 18 14 17 20 18 23 22 17 18 10 8 4 5 8 12 18 19 18 21 25 27 25 28 27 25 23 21 29 24 26 25 21 22 18 21 15 17
Wind_Direction
304 303 304 305 298 295 295 291 289 287 285 282 282 283 283 281 279 280 282 284 286 283 280 276 272 269 266 263 259 258 254 252 247 246 243 234 236 241 239 248 239 238 235
301 303 305 301 300 301 299 295 292 289 285 284 285 287 285 281 280 281 287 287 286 284 282 278 273 267 262 262 258 255 251 247 246 241 241 235 231 239 243 240 247 245 243
295 298 301 300 300 300 300 297 295 292 289 290 290 289 286 286 285 287 287 288 288 287 284 279 272 267 262 258 257 251 248 245 242 241 239 235 230 233 243 244 246 247 231
301 298 295 296 299 300 297 295 295 292 292 293 293 288 283 283 287 291 291 290 288 285 280 276 274 270 265 258 253 251 245 244 241 239 238 236 230 227 224 228 242 241 241
303 302 300 299 299 298 299 299 297 295 296 292 288 287 285 285 287 290 291 290 287 283 281 276 274 271 267 262 255 249 247 243 240 239 238 235 230 229 227 237 234 238 247
307 304 303 301 300 294 292 292 293 294 289 287 288 285 284 285 286 289 290 287 284 282 276 270 272 268 266 264 260 252 244 243 237 236 236 234 228 230 226 229 230 239 244
310 306 304 303 300 300 292 287 288 287 287 289 288 287 287 287 289 287 283 280 278 275 271 270 267 267 261 259 259 256 248 238 236 233 234 233 227 226 227 227 230 235 238
319 310 309 306 306 303 298 293 288 288 288 287 286 287 287 287 285 283 280 277 276 276 273 272 268 264 261 255 253 253 248 237 232 230 229 230 228 226 226 225 226 227 230
315 309 311 318 314 307 303 295 292 294 292 291 291 291 288 287 287 282 280 278 279 277 274 270 266 263 261 256 249 250 246 237 227 226 224 226 223 222 224 224 223 224 225
308 308 315 316 307 295 287 283 286 285 289 290 292 291 291 290 288 284 287 282 280 281 276 271 265 261 255 252 248 245 241 234 224 221 218 217 219 220 222 222 221 219 222
322 309 311 299 295 291 281 277 278 289 289 289 293 294 295 297 295 288 288 279 281 280 275 268 265 259 252 249 243 240 235 228 222 218 215 212 215 218 221 220 218 216 215
309 303 302 293 296 291 289 284 291 296 298 296 293 296 294 298 295 290 287 285 285 281 270 265 259 252 248 243 238 235 231 223 217 215 213 211 213 218 219 216 217 212 211
309 301 298 297 297 298 298 300 301 300 297 296 295 298 299 299 303 294 291 290 288 279 267 256 250 247 242 235 235 231 225 219 214 213 211 210 212 218 219 214 216 213 213
296 299 303 303 302 308 309 307 306 306 305 306 303 294 291 300 304 299 301 297 287 274 258 246 246 244 241 229 227 225 219 214 212 211 210 210 210 219 219 214 213 221 203
296 300 301 307 308 309 309 308 308 309 311 314 300 290 292 301 306 302 306 298 281 260 247 242 243 239 237 230 225 222 217 209 209 206 206 207 210 218 219 216 215 220 217
293 301 309 307 308 310 312 310 314 314 315 309 305 303 302 311 308 306 304 300 278 268 261 258 244 238 234 232 225 218 212 207 204 202 204 205 210 216 217 217 216 212 218
298 310 310 309 310 311 309 314 317 317 321 315 308 304 308 313 309 307 303 298 283 278 270 255 241 230 229 221 218 212 207 204 200 198 201 206 208 213 216 212 211 215 217
310 313 310 308 309 311 310 315 316 318 319 322 314 310 315 308 310 312 306 296 292 282 267 247 232 214 226 213 206 205 201 201 198 198 201 202 203 207 204 203 204 207 210
314 310 308 307 311 311 314 313 318 319 326 322 324 325 322 318 313 311 307 303 302 287 262 228 201 214 206 202 196 195 196 195 200 200 199 198 199 197 201 198 197 193 186
301 305 308 315 312 315 314 318 320 324 325 318 317 316 316 320 314 313 310 309 309 284 243 208 207 193 187 188 185 184 191 191 195 199 195 196 196 192 193 192 188 185 197
299 306 310 316 315 313 314 319 321 325 329 330 323 319 314 327 322 314 312 312 311 278 234 212 195 177 174 179 183 183 184 188 178 190 191 197 186 190 188 191 189 191 181
301 307 308 310 312 312 315 320 321 325 329 322 320 317 319 325 326 315 312 315 327 274 199 175 174 172 174 173 173 179 181 186 187 187 190 188 181 184 179 202 198 202 199
305 308 306 306 310 311 319 317 322 323 326 325 331 328 320 328 327 313 315 336 18 161 149 155 161 171 171 166 169 171 173 186 181 184 190 171 178 177 188 181 185 190 191
304 310 310 308 312 315 321 320 325 332 337 341 336 333 324 323 322 314 328 43 124 153 151 150 158 170 167 162 157 165 163 164 177 193 189 168 171 175 176 185 209 194 202
316 311 309 306 312 319 321 321 328 335 335 337 337 333 325 321 326 339 149 111 139 154 159 156 156 160 159 162 167 179 167 159 164 177 180 174 176 179 182 188 185 218 184
313 313 307 307 316 316 320 323 333 339 337 342 340 347 347 344 341 18 133 118 142 154 160 157 152 157 157 161 168 168 162 162 167 179 161 174 180 173 178 175 178 196 188
Height
5879 5877 5875 5873 5871 5869 5867 5865 5863 5861 5859 5857 5855 5853 5851 5850 5850 5850 5849 5849 5848 5849 5849 5848 5849 5850 5851 5852 5854 5856 5858 5861 5864 5867 5871 5873 5876 5876 5881 5883 5883 5884 5883
5875 5875 5871 5866 5863 5861 5859 5857 5854 5852 5851 5849 5848 5846 5844 5843 5842 5842 5841 5841 5842 5841 5840 5841 5842 5843 5844 5845 5846 5848 5851 5853 5856 5860 5865 5867 5870 5872 5876 5879 5881 5881 5881
5873 5870 5865 5861 5858 5855 5853 5850 5847 5845 5844 5843 5841 5840 5837 5835 5834 5834 5834 5833 5832 5831 5831 5831 5832 5833 5834 5836 5838 5840 5843 5846 5849 5852 5857 5861 5865 5867 5870 5874 5877 5878 5879
5867 5863 5859 5854 5851 5849 5846 5844 5841 5838 5837 5836 5834 5832 5830 5828 5826 5824 5824 5823 5823 5822 5822 5822 5821 5822 5825 5827 5828 5830 5833 5837 5840 5844 5848 5854 5858 5861 5864 5868 5871 5875 5876
5859 5856 5852 5847 5844 5840 5838 5835 5834 5832 5830 5829 5826 5824 5821 5820 5818 5816 5814 5813 5813 5813 5811 5811 5811 5811 5813 5816 5819 5822 5824 5827 5832 5835 5840 5845 5851 5856 5858 5863 5866 5869 5872
5853 5850 5845 5841 5837 5833 5831 5829 5826 5825 5823 5821 5818 5816 5813 5811 5808 5806 5805 5804 5803 5802 5802 5801 5802 5804 5803 5805 5808 5812 5815 5818 5822 5826 5831 5837 5843 5847 5851 5856 5862 5864 5866
5846 5843 5837 5833 5829 5827 5824 5822 5820 5818 5815 5813 5809 5807 5804 5801 5798 5797 5796 5794 5794 5794 5793 5793 5793 5793 5795 5795 5798 5801 5804 5809 5813 5817 5822 5827 5835 5838 5844 5850 5855 5860 5863
5839 5835 5831 5826 5821 5818 5817 5815 5813 5811 5808 5804 5801 5799 5795 5792 5790 5788 5786 5784 5783 5782 5782 5781 5781 5782 5784 5785 5788 5790 5793 5798 5804 5808 5813 5819 5825 5830 5837 5843 5849 5854 5858
5836 5831 5826 5819 5816 5812 5811 5808 5805 5802 5797 5795 5793 5790 5786 5783 5780 5778 5776 5775 5772 5771 5770 5769 5769 5770 5772 5774 5775 5779 5783 5788 5794 5800 5805 5811 5816 5822 5828 5836 5843 5849 5852
5831 5825 5820 5817 5813 5810 5807 5804 5800 5796 5791 5787 5786 5781 5776 5772 5770 5769 5767 5764 5762 5760 5757 5757 5757 5758 5760 5762 5764 5767 5772 5778 5785 5792 5798 5804 5810 5814 5820 5829 5837 5843 5847
5824 5821 5818 5815 5810 5806 5803 5798 5794 5789 5784 5780 5776 5772 5767 5763 5761 5759 5756 5753 5751 5748 5746 5745 5744 5745 5747 5750 5753 5757 5762 5768 5776 5784 5790 5797 5802 5807 5815 5823 5831 5837 5843
5822 5818 5814 5809 5804 5800 5795 5791 5786 5780 5776 5772 5768 5764 5761 5756 5753 5749 5745 5742 5739 5736 5734 5734 5733 5734 5735 5739 5743 5748 5752 5759 5767 5776 5783 5789 5796 5801 5808 5816 5825 5832 5838
5816 5813 5808 5802 5797 5792 5788 5782 5777 5773 5769 5765 5759 5755 5752 5749 5745 5739 5736 5731 5727 5724 5723 5723 5723 5724 5726 5730 5735 5740 5744 5751 5759 5769 5777 5784 5790 5796 5802 5810 5819 5825 5829
5810 5805 5801 5795 5790 5786 5781 5775 5771 5766 5761 5756 5751 5748 5744 5741 5736 5731 5726 5720 5716 5714 5714 5715 5716 5718 5720 5723 5727 5732 5737 5745 5753 5762 5771 5777 5785 5791 5798 5805 5813 5820 5826
5805 5800 5795 5789 5785 5780 5775 5771 5765 5760 5755 5750 5745 5742 5738 5734 5727 5722 5716 5712 5708 5707 5707 5708 5709 5712 5714 5717 5722 5727 5733 5740 5748 5757 5765 5773 5781 5786 5794 5801 5807 5817 5821
5798 5793 5790 5785 5781 5775 5770 5765 5759 5754 5748 5744 5739 5735 5731 5725 5720 5714 5710 5705 5703 5702 5701 5701 5702 5704 5707 5713 5717 5722 5728 5737 5745 5754 5761 5769 5776 5783 5791 5797 5804 5813 5815
5794 5789 5785 5780 5775 5770 5765 5760 5754 5749 5743 5738 5733 5728 5723 5719 5714 5709 5703 5700 5698 5695 5693 5692 5694 5698 5702 5707 5712 5718 5725 5733 5741 5749 5758 5765 5773 5780 5786 5794 5801 5806 5812
5787 5784 5780 5775 5771 5766 5761 5756 5751 5745 5740 5733 5727 5723 5718 5714 5708 5702 5697 5695 5692 5688 5686 5686 5688 5692 5697 5702 5707 5715 5723 5730 5738 5746 5753 5762 5770 5778 5784 5790 5796 5804 5810
5782 5780 5775 5770 5765 5761 5757 5752 5746 5740 5734 5728 5722 5718 5714 5709 5703 5697 5693 5690 5686 5683 5681 5681 5684 5688 5692 5698 5705 5714 5721 5728 5737 5745 5753 5762 5769 5777 5782 5787 5795 5802 5806
5778 5775 5770 5765 5760 5756 5752 5747 5741 5735 5728 5723 5718 5714 5710 5705 5698 5693 5690 5686 5683 5680 5679 5680 5683 5685 5691 5698 5706 5713 5719 5728 5737 5744 5753 5761 5769 5774 5780 5786 5792 5800 5801
5774 5770 5765 5761 5756 5752 5748 5743 5737 5731 5725 5719 5715 5711 5706 5701 5695 5689 5687 5683 5680 5678 5677 5679 5682 5686 5693 5699 5705 5712 5720 5729 5738 5744 5751 5759 5768 5773 5778 5785 5791 5795 5802
5769 5765 5760 5757 5752 5748 5744 5739 5732 5727 5722 5716 5711 5706 5703 5699 5693 5687 5684 5681 5679 5677 5675 5678 5682 5688 5694 5700 5707 5714 5720 5729 5736 5743 5750 5758 5766 5771 5778 5783 5787 5795 5800
5765 5761 5756 5753 5749 5745 5741 5735 5729 5724 5720 5714 5708 5704 5701 5696 5690 5685 5683 5681 5679 5678 5679 5681 5686 5691 5696 5701 5708 5716 5724 5731 5737 5743 5750 5756 5764 5770 5776 5777 5786 5792 5798
5761 5757 5753 5750 5746 5742 5737 5731 5726 5721 5716 5711 5707 5703 5698 5694 5688 5684 5682 5681 5680 5681 5683 5685 5689 5694 5699 5705 5713 5719 5725 5731 5739 5744 5749 5757 5763 5769 5775 5780 5787 5791 5797
5757 5754 5750 5747 5744 5739 5734 5729 5724 5720 5716 5711 5706 5702 5694 5690 5686 5682 5682 5682 5682 5683 5686 5689 5692 5697 5703 5709 5714 5720 5725 5732 5737 5738 5751 5758 5763 5769 5774 5779 5786 5795 5793
5754 5751 5747 5744 5741 5736 5731 5727 5723 5718 5714 5710 5705 5699 5694 5689 5684 5683 5682 5683 5684 5686 5689 5693 5697 5701 5707 5713 5717 5722 5729 5735 5738 5730 5749 5758 5764 5768 5773 5779 5784 5790 5794